EHI
0 0 0 0 0 0 0 0 0 0 0 0 0 0 0 0 0 0 0 0 0 0 0 0 0 0 0 0 0 0 0 0 0 0 0 0 0 0 0 0 0 0 0
0 0 0 0 0 0 0 0 0 0 0 0 0 0 0 0 0 0 0 0 0 0 0 0 0 0 0 0 0 0 0 0 0 0 0 0 0 0 0 0 0 0 0
0 0 0 0 0 0 0 0 0 0 0 0 0 0 0 0 0 0 0 0 0 0 0 0 0 0 0 0 0 0 0 0 0 0 0 0 0 0 0 0 0 0 0
0 0 0 0 0 0 0 0 0 0 0 0 0 0 0 0 0 0 0 0 0 0 0 0 0 0 0 0 0 0 0 0 0 0 0 0 0 0 0 0 0 0 0
0 0 0 0 0 0 0 0 0 0 0 0 0 0 0 0 0 0 0 0 0 0 0 0 0 0 0 0 0 0 0 0 0 0 0 0 0 0 0 0 0 0 0
0 0 0 0 0 0 0 0 0 0 0 0 0 0 0 0 0 0 0 0 0 0 0 0 0 0 0 0 0 0 0 0 0 0 0 0 0 0 0 0 0 0 0
0 0 0 0 0 0 0 0 0 0 0 0 0 0 0 0 0 0 0 0 0 0 0 0 0 0 0 0 0 0 0 0 0 0 0 0 0 0 0 0 0 0 0
0 0 0 0 0 0 0 0 0 0 0 0 0 0 0 0 0 0 0 0 0 0 0 0 0 0 0 0 0 0 0 0 0 0 0 0 0 0 0 0 0 0 0
0 0 0 0 0 0 0 0 0 0 0 0 0 0 0 0 0 0 0 0 0 0 0 0 0 0 0 0 0 0 0 0 0 0 0 0 0 0 0 0 0 0 0
0 0 0 0 0 0 0 0 0 0 0 0 0 0 0 0 0 0 0 0 0 0 0 0 0 0 0 0 0 0 0 0 0 0 0 0 0 0 0 0 0 0 0
0 0 0 0 0 0 0 0 0 0 0 0 0 0 0 0 0 0 0 0 0 0 0 0 0 0 0 0 0 0 0 0 0 0 0 0 0 0 0 0 0 0 0
0 0 0 0 0 0 0 0 0 0 0 0 0 0 0 0 0 0 0 0 0 0 0 0 0 0 0 0 0 0 0 0 0 0 0 0 0 0 0 0 0 0 0
0 0 0 0 0 0 0 0 0 0 0 0 0 0 0 0 0 0 0 0 0 0 0 0 0 0 0 0 0 0 0 0 0 0 0 0 0 0 0 0 0 0 0
0 0 0 0 0 0 0 0 0 0 0 0 0 0 0 0 0 0 0 0 0 0 0 0 0 0 0 0 0 0 0 0 0 0 0 0 0 0 0 0 0 0 0
0 0 0 0 0 0 0 0 0 0 0 0 0 0 0 0 0 0 0 0 0 0 0 0 0 0 0 0 0 0 0 0 0 0 0 0 0 0 0 0 0 0 0
0 0 0 0 0 0 0 0 0 0 0 0 0 0 0 0 0 0 0 0 0 0 0 0 0 0 0 0 0 0 0 0 0 0 0 0 0 0 0 0 0 0 0
0 0 0 0 0 0 0 0 0 0 0 0 0 0 0 0 0 0 0 0 0 0 0 0 0 0 0 0 0 0 0 0 0 0 0 0 0 0 0 0 0 0 0
0 0 0 0 0 0 0 0 0 0 0 0 0 0 0 0 0 0 0 0 0 0 0 0 0 0 0 0 0 0 0 0 0 0 0 0 0 0 0 0 0 0 0
0 0 0 0 0 0 0 0 0 0 0 0 0 0 0 0 0 0 0 0 0 0 0 0 0 0 0 0 0 0 0 0 0 0 0 0 0 0 0 0 0 0 0
0 0 0 0 0 0 0 0 0 0 0 0 0 0 0 0 0 0 0 0 0 0 0 0 0 0 0 0 0 0 0 0 0 0 0 0 0 0 0 0 0 0 0
0 0 0 0 0 0 0 0 0 0 0 0 0 0 0 0 0 0 0 0 0 0 0 0 0 0 0 0 0 0 0 0 0 0 0 0 0 0 0 0 0 0 0
0 0 0 0 0 0 0 0 0 0 0 0 0 0 0 0 0 0 0 0 0 0 0 0 0 0 0 0 0 0 0 0 0 0 0 0 0 0 0 0 0 0 0
0 0 0 0 0 0 0 0 0 0 0 0 0 0 0 0 0 0 0 0 0 0 0 0 0 0 0 0 0 0 0 0 0 0 0 0 0 0 0 0 0 0 0
0 0 0 0 0 0 0 0 0 0 0 0 0 0 0 0 0 0 0 0 0 0 0 0 0 0 0 0 0 0 0 0 0 0 0 0 0 0 0 0 0 0 0
0 0 0 0 0 0 0 0 0 0 0 0 0 0 0 0 0 0 0 0 0 0 0 0 0 0 0 0 0 0 0 0 0 0 0 0 0 0 0 0 0 0 0
0 0 0 0 0 0 0 0 0 0 0 0 0 0 0 0 0 0 0 0 0 0 0 0 0 0 0 0 0 0 0 0 0 0 0 0 0 0 0 0 0 0 0
Wind_Speed
10 9 9 8 8 8 8 8 7 6 6 6 6 6 6 6 6 6 5 5 5 4 4 4 5 5 4 4 4 5 5 5 10 11 8 8 11 13 13 13 13 12 12
9 9 9 9 9 10 9 8 8 8 6 6 6 7 7 6 5 5 5 5 5 5 5 5 7 6 7 6 5 7 7 7 8 13 11 9 11 12 13 13 12 11 11
9 10 10 10 10 10 9 8 8 7 6 6 6 6 6 5 5 5 5 4 4 5 6 7 8 8 8 7 8 8 7 8 8 11 13 10 10 10 11 12 13 11 12
10 11 11 10 9 9 8 7 6 6 6 5 6 6 5 5 5 5 5 4 5 6 6 7 7 8 9 10 8 9 9 9 10 10 11 10 10 11 10 10 10 8 9
11 11 10 9 8 7 7 6 6 6 6 6 6 5 4 3 3 4 4 4 6 7 8 8 8 12 13 10 10 9 10 9 9 9 10 10 10 10 9 7 9 8 9
11 10 8 8 7 6 6 6 7 6 6 6 5 4 3 3 5 7 6 4 6 8 9 9 10 10 12 15 17 18 17 14 12 10 10 11 12 11 9 8 8 8 7
9 8 7 7 7 6 6 6 6 5 5 5 4 4 3 3 5 7 10 6 7 8 8 9 8 9 13 10 14 18 17 19 19 13 12 12 13 11 10 9 8 8 8
7 6 6 6 6 6 6 6 5 3 4 3 4 3 2 3 5 7 11 8 8 9 9 9 9 10 10 12 13 13 13 12 14 11 10 11 11 10 9 8 9 8 7
6 5 5 5 6 6 5 4 3 3 3 3 3 3 3 4 7 9 9 7 7 10 10 9 10 10 12 16 13 12 12 11 12 13 13 12 13 12 8 5 5 5 5
5 5 5 6 6 5 4 3 3 3 3 3 4 3 3 4 8 9 9 5 7 8 9 9 11 12 15 17 12 11 11 10 10 10 9 9 8 8 7 5 5 5 5
5 6 6 6 5 5 4 3 3 3 3 3 3 4 4 6 8 9 10 6 6 7 7 8 8 14 17 17 13 9 11 13 9 8 7 6 6 5 5 5 5 4 5
6 7 6 5 4 4 4 3 3 3 3 3 4 5 5 6 7 8 11 10 9 7 7 7 9 15 16 15 11 12 15 12 7 6 5 5 5 5 6 6 6 5 4
6 5 4 4 4 3 3 2 2 2 1 2 3 4 6 6 6 10 11 13 14 8 7 12 14 15 13 10 12 14 11 7 6 6 6 5 5 6 6 5 6 5 4
6 4 3 3 2 2 1 1 1 1 0 1 2 3 5 6 6 7 8 8 11 9 8 10 13 12 10 9 10 8 6 6 7 6 6 5 5 5 5 5 4 5 4
5 3 3 2 2 1 1 1 2 2 3 2 1 2 4 6 8 12 8 7 7 7 8 5 5 7 7 7 7 7 6 6 6 6 6 6 5 5 5 4 4 4 4
4 3 2 2 2 1 1 1 2 3 3 3 3 4 4 6 11 11 12 12 11 11 6 5 6 6 7 7 7 6 5 5 5 5 5 6 6 6 6 5 4 5 5
4 3 2 2 2 2 2 1 2 3 3 4 5 6 6 9 10 10 12 12 9 8 4 5 5 6 7 7 7 6 5 6 5 5 4 4 4 5 5 6 6 6 6
3 3 2 2 2 1 1 1 1 1 2 3 4 6 9 10 10 9 10 8 6 6 4 5 6 6 6 7 7 6 7 7 6 5 4 3 3 3 4 5 6 8 7
2 2 2 1 1 1 1 1 1 1 1 2 3 5 8 9 8 7 7 4 4 5 5 5 5 6 6 7 7 7 7 7 7 6 5 5 3 3 3 4 5 8 7
2 3 2 1 1 1 1 1 1 1 1 2 3 4 6 6 4 5 4 4 4 5 5 5 6 6 6 6 7 7 7 7 8 6 6 6 4 2 3 5 5 6 6
1 1 2 2 2 1 1 1 1 1 1 2 2 4 7 4 5 5 5 5 5 5 5 6 6 6 6 6 7 8 8 7 6 6 6 6 6 4 4 5 6 7 6
2 2 2 2 2 2 2 2 1 1 1 2 2 4 7 4 4 5 5 5 5 5 5 5 5 5 6 6 7 7 7 7 7 6 6 6 5 6 7 7 7 7 7
3 3 3 3 2 3 3 2 1 1 1 2 2 3 4 4 4 5 5 5 6 5 5 5 5 6 6 6 5 6 6 7 7 6 5 4 4 6 7 8 9 8 8
3 3 3 3 2 2 2 2 1 1 1 2 2 3 3 4 4 5 6 6 6 5 5 5 6 8 11 9 6 6 6 7 7 4 3 1 4 5 6 6 7 8 8
3 3 3 2 2 2 2 2 2 2 3 3 3 3 4 4 5 6 6 6 7 7 8 7 6 7 10 11 11 10 11 11 7 4 3 4 6 6 5 6 4 4 4
3 3 3 2 2 2 2 3 3 3 3 3 3 3 4 4 5 6 6 7 7 7 8 7 9 10 11 9 11 12 11 10 9 7 4 5 6 4 4 3 3 2 1
Wind_Direction
83 85 88 88 93 95 97 96 94 90 92 92 93 91 88 87 91 93 87 73 62 36 15 354 327 314 305 301 292 281 272 263 281 290 279 280 280 284 289 289 289 288 285
86 86 86 87 86 85 84 82 84 83 82 89 96 97 97 95 91 87 74 55 38 11 349 334 320 319 307 298 291 284 279 268 273 291 295 289 281 280 279 279 283 282 282
87 86 81 79 81 83 83 83 85 88 88 91 95 97 96 92 82 70 60 39 15 347 328 318 312 310 304 301 296 289 282 280 272 283 293 293 288 285 284 280 279 278 279
88 88 85 84 86 88 90 89 88 89 87 83 84 87 86 81 71 56 41 20 351 330 318 310 307 303 296 297 297 293 292 289 286 285 291 297 295 292 285 286 287 277 277
92 90 91 92 92 91 88 83 78 74 77 80 82 77 71 72 65 54 27 0 337 325 322 319 314 312 314 313 309 305 301 295 294 294 296 296 294 295 290 285 286 287 281
95 95 95 93 90 86 84 81 77 71 66 66 65 66 57 57 57 43 23 353 334 327 324 323 318 315 318 318 314 311 310 307 305 298 293 291 293 292 289 286 287 287 285
97 98 96 93 88 83 87 82 76 69 64 59 47 49 48 43 52 24 5 353 333 325 319 318 317 314 317 311 313 314 310 303 298 294 291 290 291 292 289 286 279 277 276
94 96 98 98 97 89 81 76 69 63 60 50 36 31 28 11 7 358 350 347 333 325 318 311 307 307 310 318 320 312 307 302 297 296 288 290 294 295 289 285 286 284 276
95 96 98 101 98 91 82 73 63 66 56 46 35 26 16 346 345 346 350 338 330 325 319 315 312 312 314 321 322 312 308 307 310 305 300 299 300 303 306 301 302 306 306
92 92 94 96 96 92 86 72 62 70 63 51 34 13 358 336 335 344 349 337 329 326 321 320 320 319 320 323 321 312 312 317 316 314 312 314 317 319 318 314 314 313 312
94 94 89 89 95 95 80 69 75 73 59 36 14 351 344 335 334 337 342 340 329 323 322 324 320 319 320 319 318 311 312 314 307 305 308 314 324 327 326 319 307 302 305
99 96 93 93 96 99 97 85 74 72 54 24 3 351 344 338 332 331 335 339 338 327 323 320 315 316 319 319 320 317 319 319 317 318 320 325 331 334 331 324 319 313 308
105 104 105 99 93 108 119 118 89 65 51 14 2 349 339 336 333 334 337 340 343 340 324 321 323 323 326 326 325 327 331 335 337 342 345 342 333 331 332 330 330 327 321
126 128 127 122 119 117 127 147 149 159 68 357 349 341 335 333 339 343 339 336 337 339 332 323 322 324 331 329 330 336 341 346 350 350 348 342 340 344 348 344 339 342 342
144 152 154 159 173 194 219 224 215 222 208 215 263 290 322 332 329 327 329 330 328 324 322 321 334 340 343 339 337 337 340 351 356 356 356 356 355 356 356 349 350 349 359
154 174 190 199 212 219 241 294 276 256 265 258 267 286 294 300 318 329 334 335 334 335 338 338 339 339 337 333 334 336 336 343 345 348 357 2 5 6 6 3 4 9 14
169 191 207 217 224 225 224 243 301 334 352 358 348 343 338 333 336 336 337 334 335 344 350 340 336 334 333 332 334 337 335 333 332 336 344 353 2 11 15 17 18 21 22
176 203 209 228 233 227 223 227 236 324 346 343 336 336 343 341 339 339 341 343 348 352 345 338 335 333 331 333 336 337 334 335 337 335 332 332 340 3 23 29 31 30 28
190 214 220 224 207 189 175 149 119 86 36 337 332 337 343 338 335 343 351 355 339 338 338 337 334 332 332 334 335 336 335 334 337 337 336 331 327 338 17 35 43 38 36
220 223 191 169 142 129 121 117 104 86 45 357 347 341 339 341 345 345 348 341 338 336 336 335 332 331 331 331 333 336 336 338 342 342 341 343 339 346 25 43 49 50 44
217 221 136 114 101 115 116 114 110 99 42 353 337 330 344 341 344 345 345 342 340 337 334 331 330 331 331 331 333 334 335 335 338 341 344 351 5 25 44 58 60 61 58
117 109 97 94 95 100 105 98 94 84 30 3 345 337 346 354 351 350 347 343 340 335 332 329 329 328 324 323 325 326 327 329 335 342 345 355 24 51 63 67 69 69 68
105 104 93 84 85 96 92 80 69 51 17 358 346 343 351 355 353 351 346 342 340 341 343 342 338 333 327 318 313 310 313 317 318 318 326 351 45 69 74 75 77 79 75
101 108 105 96 87 86 88 75 57 45 45 35 24 14 5 358 351 347 345 342 341 342 346 347 343 335 333 330 323 319 317 315 311 304 314 66 91 93 91 88 86 89 87
96 103 103 97 93 91 92 86 72 65 62 51 36 21 7 358 351 347 346 345 345 346 349 350 347 341 337 334 334 333 330 334 347 2 67 99 103 102 104 104 103 103 99
80 93 93 89 85 88 97 96 85 78 66 51 34 19 6 357 350 347 347 350 348 345 346 347 347 347 343 339 336 335 338 350 6 22 65 93 97 102 110 107 110 109 101